Data supplied by UK-AIR on 21/3/2018
All Data GMT hour ending 
Status: R =Ratified P=Provisional,P*=As supplied
,,Chatham Roadside,,,,,,,,,,,,,,,,,,,,,,,
Date,time,"PM<sub>10</sub> particulate matter (Hourly measured)",status,unit,"Nitric oxide",status,unit,"Nitrogen dioxide",status,unit,"Nitrogen oxides as nitrogen dioxide",status,unit,"PM<sub>2.5</sub> particulate matter (Hourly measured)",status,unit
 
01-01-2017,01:00,50.851,R,ugm-3 (Ref.eq),6.94081,R,ugm-3,15.23370,R,ugm-3,25.87613,R,ugm-3,43.100,R,ugm-3 (BAM)
01-01-2017,02:00,27.498,R,ugm-3 (Ref.eq),9.04542,R,ugm-3,14.29721,R,ugm-3,28.16666,R,ugm-3,19.670,R,ugm-3 (BAM)
01-01-2017,03:00,28.909,R,ugm-3 (Ref.eq),6.44823,R,ugm-3,11.13649,R,ugm-3,21.02363,R,ugm-3,22.840,R,ugm-3 (BAM)
01-01-2017,04:00,28.677,R,ugm-3 (Ref.eq),3.99635,R,ugm-3,9.94357,R,ugm-3,16.07122,R,ugm-3,26.500,R,ugm-3 (BAM)
01-01-2017,05:00,32.918,R,ugm-3 (Ref.eq),2.92180,R,ugm-3,6.68897,R,ugm-3,11.16900,R,ugm-3,25.530,R,ugm-3 (BAM)
01-01-2017,06:00,28.909,R,ugm-3 (Ref.eq),1.54478,R,ugm-3,5.76762,R,ugm-3,8.13625,R,ugm-3,23.570,R,ugm-3 (BAM)
01-01-2017,07:00,29.614,R,ugm-3 (Ref.eq),1.57846,R,ugm-3,6.01912,R,ugm-3,8.43938,R,ugm-3,26.020,R,ugm-3 (BAM)
01-01-2017,08:00,23.720,R,ugm-3 (Ref.eq),2.61964,R,ugm-3,7.65765,R,ugm-3,11.67438,R,ugm-3,24.060,R,ugm-3 (BAM)
01-01-2017,09:00,31.034,R,ugm-3 (Ref.eq),2.82108,R,ugm-3,8.81423,R,ugm-3,13.13983,R,ugm-3,24.060,R,ugm-3 (BAM)
01-01-2017,10:00,28.203,R,ugm-3 (Ref.eq),3.92900,R,ugm-3,9.08629,R,ugm-3,15.11066,R,ugm-3,26.260,R,ugm-3 (BAM)
01-01-2017,11:00,17.353,R,ugm-3 (Ref.eq),6.04535,R,ugm-3,11.70354,R,ugm-3,20.97295,R,ugm-3,19.670,R,ugm-3 (BAM)
01-01-2017,12:00,18.300,R,ugm-3 (Ref.eq),9.83995,R,ugm-3,16.54934,R,ugm-3,31.63705,R,ugm-3,15.520,R,ugm-3 (BAM)
01-01-2017,13:00,18.764,R,ugm-3 (Ref.eq),11.01522,R,ugm-3,17.88044,R,ugm-3,34.77021,R,ugm-3,15.270,R,ugm-3 (BAM)
01-01-2017,14:00,12.638,R,ugm-3 (Ref.eq),15.95203,R,ugm-3,25.92633,R,ugm-3,50.38577,R,ugm-3,11.120,R,ugm-3 (BAM)
01-01-2017,15:00,13.817,R,ugm-3 (Ref.eq),15.81764,R,ugm-3,25.67770,R,ugm-3,49.93107,R,ugm-3,8.190,R,ugm-3 (BAM)
01-01-2017,16:00,8.860,R,ugm-3 (Ref.eq),12.32520,R,ugm-3,22.33991,R,ugm-3,41.23828,R,ugm-3,8.190,R,ugm-3 (BAM)
01-01-2017,17:00,7.913,R,ugm-3 (Ref.eq),4.90345,R,ugm-3,8.85583,R,ugm-3,16.37435,R,ugm-3,6.240,R,ugm-3 (BAM)
01-01-2017,18:00,9.807,R,ugm-3 (Ref.eq),2.55229,R,ugm-3,6.39636,R,ugm-3,10.30981,R,ugm-3,4.530,R,ugm-3 (BAM)
01-01-2017,19:00,5.556,R,ugm-3 (Ref.eq),4.46658,R,ugm-3,8.21132,R,ugm-3,15.05998,R,ugm-3,5.020,R,ugm-3 (BAM)
01-01-2017,20:00,2.019,R,ugm-3 (Ref.eq),3.25764,R,ugm-3,7.38655,R,ugm-3,12.38153,R,ugm-3,3.310,R,ugm-3 (BAM)
01-01-2017,21:00,7.913,R,ugm-3 (Ref.eq),2.35085,R,ugm-3,6.25005,R,ugm-3,9.85463,R,ugm-3,5.750,R,ugm-3 (BAM)
01-01-2017,22:00,7.208,R,ugm-3 (Ref.eq),2.21645,R,ugm-3,5.90006,R,ugm-3,9.29858,R,ugm-3,5.260,R,ugm-3 (BAM)
01-01-2017,23:00,10.271,R,ugm-3 (Ref.eq),2.95548,R,ugm-3,12.04493,R,ugm-3,16.57659,R,ugm-3,4.770,R,ugm-3 (BAM)
01-01-2017,24:00,12.638,R,ugm-3 (Ref.eq),2.61995,R,ugm-3,9.72889,R,ugm-3,13.74609,R,ugm-3,3.800,R,ugm-3 (BAM)
02-01-2017,01:00,12.870,R,ugm-3 (Ref.eq),1.70340,R,ugm-3,6.43429,R,ugm-3,9.04613,R,ugm-3,4.530,R,ugm-3 (BAM)
02-01-2017,02:00,10.039,R,ugm-3 (Ref.eq),1.38949,R,ugm-3,5.09299,R,ugm-3,7.22351,R,ugm-3,6.240,R,ugm-3 (BAM)
02-01-2017,03:00,12.870,R,ugm-3 (Ref.eq),0.73965,R,ugm-3,2.56179,R,ugm-3,3.69591,R,ugm-3,4.040,R,ugm-3 (BAM)
02-01-2017,04:00,10.744,R,ugm-3 (Ref.eq),0.87373,R,ugm-3,3.11594,R,ugm-3,4.45565,R,ugm-3,3.310,R,ugm-3 (BAM)
02-01-2017,05:00,9.092,R,ugm-3 (Ref.eq),1.84912,R,ugm-3,6.78507,R,ugm-3,9.62035,R,ugm-3,2.580,R,ugm-3 (BAM)
02-01-2017,06:00,14.995,R,ugm-3 (Ref.eq),2.15128,R,ugm-3,7.28376,R,ugm-3,10.58234,R,ugm-3,6.970,R,ugm-3 (BAM)
02-01-2017,07:00,17.585,R,ugm-3 (Ref.eq),4.47095,R,ugm-3,13.19529,R,ugm-3,20.05065,R,ugm-3,5.510,R,ugm-3 (BAM)
02-01-2017,08:00,18.532,R,ugm-3 (Ref.eq),4.60534,R,ugm-3,16.93901,R,ugm-3,24.00044,R,ugm-3,3.800,R,ugm-3 (BAM)
02-01-2017,09:00,14.290,R,ugm-3 (Ref.eq),8.23561,R,ugm-3,25.95454,R,ugm-3,38.58230,R,ugm-3,7.460,R,ugm-3 (BAM)
02-01-2017,10:00,18.764,R,ugm-3 (Ref.eq),24.74051,R,ugm-3,36.44556,R,ugm-3,74.38047,R,ugm-3,8.680,R,ugm-3 (BAM)
02-01-2017,11:00,17.353,R,ugm-3 (Ref.eq),30.62309,R,ugm-3,40.99587,R,ugm-3,87.95062,R,ugm-3,6.730,R,ugm-3 (BAM)
02-01-2017,12:00,14.995,R,ugm-3 (Ref.eq),19.93341,R,ugm-3,25.13264,R,ugm-3,55.69678,R,ugm-3,5.510,R,ugm-3 (BAM)
02-01-2017,13:00,17.353,R,ugm-3 (Ref.eq),28.43782,R,ugm-3,37.61218,R,ugm-3,81.21623,R,ugm-3,6.240,R,ugm-3 (BAM)
02-01-2017,14:00,15.933,R,ugm-3 (Ref.eq),14.05084,R,ugm-3,27.46924,R,ugm-3,49.01355,R,ugm-3,3.560,R,ugm-3 (BAM)
02-01-2017,15:00,13.817,R,ugm-3 (Ref.eq),10.68936,R,ugm-3,21.63563,R,ugm-3,38.02576,R,ugm-3,6.000,R,ugm-3 (BAM)
02-01-2017,16:00,13.102,R,ugm-3 (Ref.eq),14.95856,R,ugm-3,30.83619,R,ugm-3,53.77233,R,ugm-3,7.950,R,ugm-3 (BAM)
02-01-2017,17:00,17.111,R,ugm-3 (Ref.eq),9.84899,R,ugm-3,29.50653,R,ugm-3,44.60811,R,ugm-3,14.300,R,ugm-3 (BAM)
02-01-2017,18:00,22.068,R,ugm-3 (Ref.eq),19.96740,R,ugm-3,46.09364,R,ugm-3,76.70990,R,ugm-3,11.610,R,ugm-3 (BAM)
02-01-2017,19:00,21.595,R,ugm-3 (Ref.eq),20.84114,R,ugm-3,47.03220,R,ugm-3,78.98816,R,ugm-3,16.250,R,ugm-3 (BAM)
02-01-2017,20:00,25.141,R,ugm-3 (Ref.eq),35.09403,R,ugm-3,59.70968,R,ugm-3,113.51978,R,ugm-3,17.470,R,ugm-3 (BAM)
02-01-2017,21:00,28.677,R,ugm-3 (Ref.eq),37.61483,R,ugm-3,59.38934,R,ugm-3,117.06460,R,ugm-3,18.940,R,ugm-3 (BAM)
02-01-2017,22:00,26.319,R,ugm-3 (Ref.eq),26.08510,R,ugm-3,50.89067,R,ugm-3,90.88726,R,ugm-3,20.400,R,ugm-3 (BAM)
02-01-2017,23:00,26.078,R,ugm-3 (Ref.eq),16.26916,R,ugm-3,49.08049,R,ugm-3,74.02618,R,ugm-3,21.130,R,ugm-3 (BAM)
02-01-2017,24:00,27.971,R,ugm-3 (Ref.eq),17.95021,R,ugm-3,50.45223,R,ugm-3,77.97549,R,ugm-3,16.980,R,ugm-3 (BAM)
03-01-2017,01:00,29.856,R,ugm-3 (Ref.eq),15.29772,R,ugm-3,49.52482,R,ugm-3,72.98100,R,ugm-3,18.690,R,ugm-3 (BAM)
03-01-2017,02:00,25.372,R,ugm-3 (Ref.eq),8.97224,R,ugm-3,49.56053,R,ugm-3,63.31777,R,ugm-3,18.940,R,ugm-3 (BAM)
03-01-2017,03:00,22.310,R,ugm-3 (Ref.eq),5.65245,R,ugm-3,47.53853,R,ugm-3,56.20551,R,ugm-3,17.710,R,ugm-3 (BAM)
03-01-2017,04:00,16.880,R,ugm-3 (Ref.eq),7.16636,R,ugm-3,41.61887,R,ugm-3,52.60714,R,ugm-3,14.540,R,ugm-3 (BAM)
03-01-2017,05:00,19.942,R,ugm-3 (Ref.eq),6.22434,R,ugm-3,38.70470,R,ugm-3,48.24855,R,ugm-3,13.810,R,ugm-3 (BAM)
03-01-2017,06:00,19.237,R,ugm-3 (Ref.eq),13.29029,R,ugm-3,35.77666,R,ugm-3,56.15483,R,ugm-3,14.790,R,ugm-3 (BAM)
03-01-2017,07:00,18.058,R,ugm-3 (Ref.eq),33.20843,R,ugm-3,54.75153,R,ugm-3,105.67041,R,ugm-3,13.080,R,ugm-3 (BAM)
03-01-2017,08:00,18.764,R,ugm-3 (Ref.eq),52.45395,R,ugm-3,51.95115,R,ugm-3,132.37943,R,ugm-3,14.050,R,ugm-3 (BAM)
03-01-2017,09:00,17.585,R,ugm-3 (Ref.eq),63.28831,R,ugm-3,64.22701,R,ugm-3,161.26774,R,ugm-3,10.390,R,ugm-3 (BAM)
03-01-2017,10:00,14.522,R,ugm-3 (Ref.eq),53.59804,R,ugm-3,51.61598,R,ugm-3,133.79850,R,ugm-3,6.970,R,ugm-3 (BAM)
03-01-2017,11:00,11.459,R,ugm-3 (Ref.eq),60.29324,R,ugm-3,56.09841,R,ugm-3,148.54674,R,ugm-3,9.410,R,ugm-3 (BAM)
03-01-2017,12:00,13.343,R,ugm-3 (Ref.eq),44.10983,R,ugm-3,50.50387,R,ugm-3,118.13799,R,ugm-3,8.440,R,ugm-3 (BAM)
03-01-2017,13:00,15.701,R,ugm-3 (Ref.eq),36.53965,R,ugm-3,45.99467,R,ugm-3,102.02136,R,ugm-3,10.880,R,ugm-3 (BAM)
03-01-2017,14:00,19.237,R,ugm-3 (Ref.eq),35.29454,R,ugm-3,46.58611,R,ugm-3,100.70364,R,ugm-3,14.050,R,ugm-3 (BAM)
03-01-2017,15:00,17.826,R,ugm-3 (Ref.eq),39.26469,R,ugm-3,47.64468,R,ugm-3,107.84970,R,ugm-3,12.100,R,ugm-3 (BAM)
03-01-2017,16:00,17.111,R,ugm-3 (Ref.eq),38.15460,R,ugm-3,53.04653,R,ugm-3,111.54943,R,ugm-3,11.120,R,ugm-3 (BAM)
03-01-2017,17:00,16.406,R,ugm-3 (Ref.eq),28.93580,R,ugm-3,42.60142,R,ugm-3,86.96903,R,ugm-3,9.170,R,ugm-3 (BAM)
03-01-2017,18:00,14.995,R,ugm-3 (Ref.eq),31.42510,R,ugm-3,52.92461,R,ugm-3,101.10909,R,ugm-3,12.100,R,ugm-3 (BAM)
03-01-2017,19:00,17.826,R,ugm-3 (Ref.eq),27.75804,R,ugm-3,46.68795,R,ugm-3,89.24968,R,ugm-3,18.690,R,ugm-3 (BAM)
03-01-2017,20:00,9.334,R,ugm-3 (Ref.eq),26.51292,R,ugm-3,37.64995,R,ugm-3,78.30253,R,ugm-3,11.370,R,ugm-3 (BAM)
03-01-2017,21:00,14.995,R,ugm-3 (Ref.eq),12.51603,R,ugm-3,32.80798,R,ugm-3,51.99896,R,ugm-3,9.900,R,ugm-3 (BAM)
03-01-2017,22:00,17.353,R,ugm-3 (Ref.eq),8.81529,R,ugm-3,23.58208,R,ugm-3,37.09868,R,ugm-3,10.150,R,ugm-3 (BAM)
03-01-2017,23:00,16.406,R,ugm-3 (Ref.eq),9.15144,R,ugm-3,25.49936,R,ugm-3,39.53138,R,ugm-3,7.700,R,ugm-3 (BAM)
03-01-2017,24:00,10.271,R,ugm-3 (Ref.eq),4.27325,R,ugm-3,17.06524,R,ugm-3,23.61746,R,ugm-3,10.390,R,ugm-3 (BAM)
04-01-2017,01:00,15.227,R,ugm-3 (Ref.eq),3.18810,R,ugm-3,10.80371,R,ugm-3,15.69206,R,ugm-3,6.970,R,ugm-3 (BAM)
04-01-2017,02:00,9.565,R,ugm-3 (Ref.eq),1.79611,R,ugm-3,7.05394,R,ugm-3,9.80794,R,ugm-3,7.460,R,ugm-3 (BAM)
04-01-2017,03:00,14.995,R,ugm-3 (Ref.eq),1.27973,R,ugm-3,7.62562,R,ugm-3,9.58784,R,ugm-3,8.440,R,ugm-3 (BAM)
04-01-2017,04:00,8.155,R,ugm-3 (Ref.eq),1.07767,R,ugm-3,5.65239,R,ugm-3,7.30479,R,ugm-3,5.750,R,ugm-3 (BAM)
04-01-2017,05:00,9.092,R,ugm-3 (Ref.eq),3.19933,R,ugm-3,9.70403,R,ugm-3,14.60959,R,ugm-3,3.560,R,ugm-3 (BAM)
04-01-2017,06:00,7.681,R,ugm-3 (Ref.eq),11.14712,R,ugm-3,21.20867,R,ugm-3,38.30068,R,ugm-3,4.290,R,ugm-3 (BAM)
04-01-2017,07:00,10.271,R,ugm-3 (Ref.eq),19.63375,R,ugm-3,35.84312,R,ugm-3,65.94778,R,ugm-3,6.480,R,ugm-3 (BAM)
04-01-2017,08:00,12.870,R,ugm-3 (Ref.eq),35.25992,R,ugm-3,50.79265,R,ugm-3,104.85712,R,ugm-3,9.660,R,ugm-3 (BAM)
04-01-2017,09:00,16.174,R,ugm-3 (Ref.eq),67.65729,R,ugm-3,76.14619,R,ugm-3,179.88593,R,ugm-3,13.320,R,ugm-3 (BAM)
04-01-2017,10:00,15.227,R,ugm-3 (Ref.eq),51.69435,R,ugm-3,67.59731,R,ugm-3,146.86088,R,ugm-3,9.410,R,ugm-3 (BAM)
04-01-2017,11:00,9.334,R,ugm-3 (Ref.eq),28.79392,R,ugm-3,48.93801,R,ugm-3,93.08807,R,ugm-3,11.120,R,ugm-3 (BAM)
04-01-2017,12:00,21.595,R,ugm-3 (Ref.eq),,,,,,,,,,10.150,R,ugm-3 (BAM)
04-01-2017,13:00,29.614,R,ugm-3 (Ref.eq),11.34918,R,ugm-3,25.71787,R,ugm-3,43.11970,R,ugm-3,11.610,R,ugm-3 (BAM)
04-01-2017,14:00,24.194,R,ugm-3 (Ref.eq),16.33339,R,ugm-3,26.90266,R,ugm-3,51.94685,R,ugm-3,9.900,R,ugm-3 (BAM)
04-01-2017,15:00,18.300,R,ugm-3 (Ref.eq),15.28940,R,ugm-3,27.79293,R,ugm-3,51.23635,R,ugm-3,7.700,R,ugm-3 (BAM)
04-01-2017,16:00,24.194,R,ugm-3 (Ref.eq),20.47568,R,ugm-3,36.02337,R,ugm-3,67.41897,R,ugm-3,10.150,R,ugm-3 (BAM)
04-01-2017,17:00,23.015,R,ugm-3 (Ref.eq),23.20352,R,ugm-3,41.53042,R,ugm-3,77.10865,R,ugm-3,11.120,R,ugm-3 (BAM)
04-01-2017,18:00,24.194,R,ugm-3 (Ref.eq),22.66469,R,ugm-3,48.49431,R,ugm-3,83.24634,R,ugm-3,12.340,R,ugm-3 (BAM)
04-01-2017,19:00,20.416,R,ugm-3 (Ref.eq),11.28183,R,ugm-3,37.23590,R,ugm-3,54.53446,R,ugm-3,13.320,R,ugm-3 (BAM)
04-01-2017,20:00,20.416,R,ugm-3 (Ref.eq),8.95811,R,ugm-3,39.83451,R,ugm-3,53.57008,R,ugm-3,8.930,R,ugm-3 (BAM)
04-01-2017,21:00,17.353,R,ugm-3 (Ref.eq),15.35676,R,ugm-3,41.28514,R,ugm-3,64.83184,R,ugm-3,7.220,R,ugm-3 (BAM)
04-01-2017,22:00,19.479,R,ugm-3 (Ref.eq),6.87013,R,ugm-3,37.70924,R,ugm-3,48.24329,R,ugm-3,10.630,R,ugm-3 (BAM)
04-01-2017,23:00,17.353,R,ugm-3 (Ref.eq),9.83371,R,ugm-3,41.53568,R,ugm-3,56.61383,R,ugm-3,11.610,R,ugm-3 (BAM)
04-01-2017,24:00,21.363,R,ugm-3 (Ref.eq),10.43990,R,ugm-3,47.04846,R,ugm-3,63.05608,R,ugm-3,12.340,R,ugm-3 (BAM)
05-01-2017,01:00,18.532,R,ugm-3 (Ref.eq),3.90987,R,ugm-3,33.95644,R,ugm-3,39.95149,R,ugm-3,10.150,R,ugm-3 (BAM)
05-01-2017,02:00,16.880,R,ugm-3 (Ref.eq),2.06761,R,ugm-3,27.21806,R,ugm-3,30.38835,R,ugm-3,7.950,R,ugm-3 (BAM)
05-01-2017,03:00,18.300,R,ugm-3 (Ref.eq),2.15752,R,ugm-3,22.99303,R,ugm-3,26.30118,R,ugm-3,9.410,R,ugm-3 (BAM)
05-01-2017,04:00,17.585,R,ugm-3 (Ref.eq),6.30354,R,ugm-3,27.11543,R,ugm-3,36.78072,R,ugm-3,13.320,R,ugm-3 (BAM)
05-01-2017,05:00,19.005,R,ugm-3 (Ref.eq),4.34840,R,ugm-3,28.28205,R,ugm-3,34.94950,R,ugm-3,11.120,R,ugm-3 (BAM)
05-01-2017,06:00,15.701,R,ugm-3 (Ref.eq),13.92143,R,ugm-3,41.37981,R,ugm-3,62.72570,R,ugm-3,11.370,R,ugm-3 (BAM)
05-01-2017,07:00,19.942,R,ugm-3 (Ref.eq),30.23642,R,ugm-3,52.94135,R,ugm-3,99.30322,R,ugm-3,11.610,R,ugm-3 (BAM)
05-01-2017,08:00,22.773,R,ugm-3 (Ref.eq),58.38237,R,ugm-3,65.43953,R,ugm-3,154.95792,R,ugm-3,17.230,R,ugm-3 (BAM)
05-01-2017,09:00,26.793,R,ugm-3 (Ref.eq),150.27159,R,ugm-3,81.63841,R,ugm-3,312.05163,R,ugm-3,14.300,R,ugm-3 (BAM)
05-01-2017,10:00,33.624,R,ugm-3 (Ref.eq),135.54129,R,ugm-3,82.85811,R,ugm-3,290.68518,R,ugm-3,19.910,R,ugm-3 (BAM)
05-01-2017,11:00,29.382,R,ugm-3 (Ref.eq),95.25942,R,ugm-3,70.29776,R,ugm-3,216.36017,R,ugm-3,14.050,R,ugm-3 (BAM)
05-01-2017,12:00,27.498,R,ugm-3 (Ref.eq),44.89937,R,ugm-3,56.30161,R,ugm-3,125.14635,R,ugm-3,13.810,R,ugm-3 (BAM)
05-01-2017,13:00,34.339,R,ugm-3 (Ref.eq),59.19156,R,ugm-3,63.53708,R,ugm-3,154.29620,R,ugm-3,20.890,R,ugm-3 (BAM)
05-01-2017,14:00,37.170,R,ugm-3 (Ref.eq),58.07959,R,ugm-3,64.27578,R,ugm-3,153.32991,R,ugm-3,26.020,R,ugm-3 (BAM)
05-01-2017,15:00,40.464,R,ugm-3 (Ref.eq),74.15791,R,ugm-3,78.48900,R,ugm-3,192.19621,R,ugm-3,27.730,R,ugm-3 (BAM)
05-01-2017,16:00,37.634,R,ugm-3 (Ref.eq),105.87768,R,ugm-3,86.93173,R,ugm-3,249.27525,R,ugm-3,22.600,R,ugm-3 (BAM)
05-01-2017,17:00,46.126,R,ugm-3 (Ref.eq),140.22646,R,ugm-3,89.30849,R,ugm-3,304.31939,R,ugm-3,34.320,R,ugm-3 (BAM)
05-01-2017,18:00,41.411,R,ugm-3 (Ref.eq),86.32719,R,ugm-3,67.86793,R,ugm-3,200.23445,R,ugm-3,33.340,R,ugm-3 (BAM)
05-01-2017,19:00,44.716,R,ugm-3 (Ref.eq),99.33809,R,ugm-3,71.26883,R,ugm-3,223.58512,R,ugm-3,29.680,R,ugm-3 (BAM)
05-01-2017,20:00,41.885,R,ugm-3 (Ref.eq),92.59675,R,ugm-3,72.39673,R,ugm-3,214.37643,R,ugm-3,32.610,R,ugm-3 (BAM)
05-01-2017,21:00,44.716,R,ugm-3 (Ref.eq),90.23717,R,ugm-3,68.33315,R,ugm-3,206.69487,R,ugm-3,31.880,R,ugm-3 (BAM)
05-01-2017,22:00,42.117,R,ugm-3 (Ref.eq),73.14697,R,ugm-3,62.69175,R,ugm-3,174.84888,R,ugm-3,32.610,R,ugm-3 (BAM)
05-01-2017,23:00,36.223,R,ugm-3 (Ref.eq),69.16933,R,ugm-3,58.00565,R,ugm-3,164.06381,R,ugm-3,30.900,R,ugm-3 (BAM)
05-01-2017,24:00,38.348,R,ugm-3 (Ref.eq),52.28152,R,ugm-3,53.88564,R,ugm-3,134.04952,R,ugm-3,25.770,R,ugm-3 (BAM)
06-01-2017,01:00,28.909,R,ugm-3 (Ref.eq),39.26376,R,ugm-3,44.38275,R,ugm-3,104.58634,R,ugm-3,20.640,R,ugm-3 (BAM)
06-01-2017,02:00,20.657,R,ugm-3 (Ref.eq),4.86281,R,ugm-3,29.24085,R,ugm-3,36.69705,R,ugm-3,17.230,R,ugm-3 (BAM)
06-01-2017,03:00,28.909,R,ugm-3 (Ref.eq),7.53057,R,ugm-3,26.32222,R,ugm-3,37.86893,R,ugm-3,22.350,R,ugm-3 (BAM)
06-01-2017,04:00,29.150,R,ugm-3 (Ref.eq),3.84979,R,ugm-3,24.52494,R,ugm-3,30.42788,R,ugm-3,20.400,R,ugm-3 (BAM)
06-01-2017,05:00,29.150,R,ugm-3 (Ref.eq),2.29628,R,ugm-3,16.81566,R,ugm-3,20.33657,R,ugm-3,17.230,R,ugm-3 (BAM)
06-01-2017,06:00,23.488,R,ugm-3 (Ref.eq),2.56663,R,ugm-3,15.73844,R,ugm-3,19.67389,R,ugm-3,16.010,R,ugm-3 (BAM)
06-01-2017,07:00,23.247,R,ugm-3 (Ref.eq),3.24205,R,ugm-3,19.34063,R,ugm-3,24.31170,R,ugm-3,17.960,R,ugm-3 (BAM)
06-01-2017,08:00,23.488,R,ugm-3 (Ref.eq),5.84267,R,ugm-3,27.02506,R,ugm-3,35.98369,R,ugm-3,14.300,R,ugm-3 (BAM)
06-01-2017,09:00,21.121,R,ugm-3 (Ref.eq),12.49545,R,ugm-3,31.50318,R,ugm-3,50.66260,R,ugm-3,15.030,R,ugm-3 (BAM)
06-01-2017,10:00,19.710,R,ugm-3 (Ref.eq),8.47665,R,ugm-3,27.06331,R,ugm-3,40.06066,R,ugm-3,11.610,R,ugm-3 (BAM)
06-01-2017,11:00,20.184,R,ugm-3 (Ref.eq),8.13863,R,ugm-3,20.08986,R,ugm-3,32.56892,R,ugm-3,8.680,R,ugm-3 (BAM)
06-01-2017,12:00,20.657,R,ugm-3 (Ref.eq),9.62479,R,ugm-3,24.69133,R,ugm-3,39.44914,R,ugm-3,15.030,R,ugm-3 (BAM)
06-01-2017,13:00,29.856,R,ugm-3 (Ref.eq),29.58284,R,ugm-3,38.68701,R,ugm-3,84.04673,R,ugm-3,16.980,R,ugm-3 (BAM)
06-01-2017,14:00,24.899,R,ugm-3 (Ref.eq),47.71796,R,ugm-3,37.73984,R,ugm-3,110.90635,R,ugm-3,13.320,R,ugm-3 (BAM)
06-01-2017,15:00,22.068,R,ugm-3 (Ref.eq),33.77065,R,ugm-3,47.25023,R,ugm-3,99.03116,R,ugm-3,19.180,R,ugm-3 (BAM)
06-01-2017,16:00,25.846,R,ugm-3 (Ref.eq),34.41238,R,ugm-3,51.92390,R,ugm-3,104.68882,R,ugm-3,16.250,R,ugm-3 (BAM)
06-01-2017,17:00,31.034,R,ugm-3 (Ref.eq),45.25267,R,ugm-3,70.47037,R,ugm-3,139.85682,R,ugm-3,21.380,R,ugm-3 (BAM)
06-01-2017,18:00,29.382,R,ugm-3 (Ref.eq),57.47777,R,ugm-3,69.05416,R,ugm-3,157.18551,R,ugm-3,21.860,R,ugm-3 (BAM)
06-01-2017,19:00,27.971,R,ugm-3 (Ref.eq),24.75423,R,ugm-3,47.77282,R,ugm-3,85.72877,R,ugm-3,19.420,R,ugm-3 (BAM)
06-01-2017,20:00,27.730,R,ugm-3 (Ref.eq),25.93573,R,ugm-3,33.52469,R,ugm-3,73.29226,R,ugm-3,15.270,R,ugm-3 (BAM)
06-01-2017,21:00,20.657,R,ugm-3 (Ref.eq),10.40155,R,ugm-3,27.93493,R,ugm-3,43.88375,R,ugm-3,11.120,R,ugm-3 (BAM)
06-01-2017,22:00,14.754,R,ugm-3 (Ref.eq),6.04504,R,ugm-3,18.96722,R,ugm-3,28.23615,R,ugm-3,11.610,R,ugm-3 (BAM)
06-01-2017,23:00,14.290,R,ugm-3 (Ref.eq),4.25485,R,ugm-3,12.28303,R,ugm-3,18.80705,R,ugm-3,11.120,R,ugm-3 (BAM)
06-01-2017,24:00,5.556,R,ugm-3 (Ref.eq),4.15382,R,ugm-3,10.55222,R,ugm-3,16.92132,R,ugm-3,9.900,R,ugm-3 (BAM)
07-01-2017,01:00,10.039,R,ugm-3 (Ref.eq),2.11833,R,ugm-3,6.97425,R,ugm-3,10.22231,R,ugm-3,7.950,R,ugm-3 (BAM)
07-01-2017,02:00,9.334,R,ugm-3 (Ref.eq),1.93789,R,ugm-3,5.27468,R,ugm-3,8.24606,R,ugm-3,6.480,R,ugm-3 (BAM)
07-01-2017,03:00,6.261,R,ugm-3 (Ref.eq),1.96044,R,ugm-3,5.98947,R,ugm-3,8.99544,R,ugm-3,4.770,R,ugm-3 (BAM)
07-01-2017,04:00,6.261,R,ugm-3 (Ref.eq),2.23080,R,ugm-3,6.08605,R,ugm-3,9.50656,R,ugm-3,4.770,R,ugm-3 (BAM)
07-01-2017,05:00,6.261,R,ugm-3 (Ref.eq),1.85941,R,ugm-3,5.99138,R,ugm-3,8.84244,R,ugm-3,8.680,R,ugm-3 (BAM)
07-01-2017,06:00,4.609,R,ugm-3 (Ref.eq),7.03072,R,ugm-3,15.23545,R,ugm-3,26.01574,R,ugm-3,6.000,R,ugm-3 (BAM)
07-01-2017,07:00,5.556,R,ugm-3 (Ref.eq),15.37952,R,ugm-3,23.13456,R,ugm-3,46.71616,R,ugm-3,4.290,R,ugm-3 (BAM)
07-01-2017,08:00,10.512,R,ugm-3 (Ref.eq),19.30072,R,ugm-3,26.52685,R,ugm-3,56.12088,R,ugm-3,7.460,R,ugm-3 (BAM)
07-01-2017,09:00,12.638,R,ugm-3 (Ref.eq),23.62729,R,ugm-3,35.99277,R,ugm-3,72.22078,R,ugm-3,16.490,R,ugm-3 (BAM)
07-01-2017,10:00,17.353,R,ugm-3 (Ref.eq),46.64653,R,ugm-3,50.22416,R,ugm-3,121.74784,R,ugm-3,15.030,R,ugm-3 (BAM)
07-01-2017,11:00,22.068,R,ugm-3 (Ref.eq),63.58112,R,ugm-3,55.69152,R,ugm-3,153.18121,R,ugm-3,15.760,R,ugm-3 (BAM)
07-01-2017,12:00,18.300,R,ugm-3 (Ref.eq),58.47717,R,ugm-3,52.11993,R,ugm-3,141.78367,R,ugm-3,18.200,R,ugm-3 (BAM)
07-01-2017,13:00,35.518,R,ugm-3 (Ref.eq),68.92174,R,ugm-3,56.24232,R,ugm-3,161.92086,R,ugm-3,28.700,R,ugm-3 (BAM)
07-01-2017,14:00,21.121,R,ugm-3 (Ref.eq),44.65241,R,ugm-3,42.54834,R,ugm-3,111.01441,R,ugm-3,20.160,R,ugm-3 (BAM)
07-01-2017,15:00,19.942,R,ugm-3 (Ref.eq),52.46050,R,ugm-3,48.10703,R,ugm-3,128.54534,R,ugm-3,21.620,R,ugm-3 (BAM)
07-01-2017,16:00,14.995,R,ugm-3 (Ref.eq),38.73677,R,ugm-3,45.17899,R,ugm-3,104.57454,R,ugm-3,14.790,R,ugm-3 (BAM)
07-01-2017,17:00,11.218,R,ugm-3 (Ref.eq),27.75118,R,ugm-3,44.49144,R,ugm-3,87.04266,R,ugm-3,15.270,R,ugm-3 (BAM)
07-01-2017,18:00,23.720,R,ugm-3 (Ref.eq),20.55145,R,ugm-3,38.30690,R,ugm-3,69.81868,R,ugm-3,18.690,R,ugm-3 (BAM)
07-01-2017,19:00,34.803,R,ugm-3 (Ref.eq),37.38501,R,ugm-3,49.14217,R,ugm-3,106.46505,R,ugm-3,28.700,R,ugm-3 (BAM)
07-01-2017,20:00,28.203,R,ugm-3 (Ref.eq),31.43601,R,ugm-3,49.21771,R,ugm-3,97.41893,R,ugm-3,27.970,R,ugm-3 (BAM)
07-01-2017,21:00,24.667,R,ugm-3 (Ref.eq),26.73712,R,ugm-3,47.11970,R,ugm-3,88.11605,R,ugm-3,21.620,R,ugm-3 (BAM)
07-01-2017,22:00,20.184,R,ugm-3 (Ref.eq),18.38832,R,ugm-3,38.30116,R,ugm-3,66.49619,R,ugm-3,20.640,R,ugm-3 (BAM)
07-01-2017,23:00,22.310,R,ugm-3 (Ref.eq),18.82768,R,ugm-3,42.79028,R,ugm-3,71.65898,R,ugm-3,21.380,R,ugm-3 (BAM)
07-01-2017,24:00,18.532,R,ugm-3 (Ref.eq),14.39977,R,ugm-3,31.38317,R,ugm-3,53.46250,R,ugm-3,16.740,R,ugm-3 (BAM)
08-01-2017,01:00,19.237,R,ugm-3 (Ref.eq),14.97716,R,ugm-3,32.33910,R,ugm-3,55.30376,R,ugm-3,19.180,R,ugm-3 (BAM)
08-01-2017,02:00,31.508,R,ugm-3 (Ref.eq),14.21007,R,ugm-3,43.14281,R,ugm-3,64.93129,R,ugm-3,17.960,R,ugm-3 (BAM)
08-01-2017,03:00,25.604,R,ugm-3 (Ref.eq),22.05944,R,ugm-3,41.39893,R,ugm-3,75.22293,R,ugm-3,24.550,R,ugm-3 (BAM)
08-01-2017,04:00,27.025,R,ugm-3 (Ref.eq),21.72111,R,ugm-3,41.56006,R,ugm-3,74.86529,R,ugm-3,23.090,R,ugm-3 (BAM)
08-01-2017,05:00,21.363,R,ugm-3 (Ref.eq),8.52592,R,ugm-3,39.82447,R,ugm-3,52.89736,R,ugm-3,16.980,R,ugm-3 (BAM)
08-01-2017,06:00,22.310,R,ugm-3 (Ref.eq),3.89095,R,ugm-3,31.41473,R,ugm-3,37.38077,R,ugm-3,25.770,R,ugm-3 (BAM)
08-01-2017,07:00,13.102,R,ugm-3 (Ref.eq),5.31194,R,ugm-3,32.10370,R,ugm-3,40.24856,R,ugm-3,15.520,R,ugm-3 (BAM)
08-01-2017,08:00,15.227,R,ugm-3 (Ref.eq),10.62357,R,ugm-3,35.68582,R,ugm-3,51.97506,R,ugm-3,14.050,R,ugm-3 (BAM)
08-01-2017,09:00,14.995,R,ugm-3 (Ref.eq),6.09025,R,ugm-3,25.22683,R,ugm-3,34.56509,R,ugm-3,11.370,R,ugm-3 (BAM)
08-01-2017,10:00,21.595,R,ugm-3 (Ref.eq),38.16364,R,ugm-3,51.06710,R,ugm-3,109.58386,R,ugm-3,19.180,R,ugm-3 (BAM)
08-01-2017,11:00,23.488,R,ugm-3 (Ref.eq),59.41077,R,ugm-3,59.09529,R,ugm-3,150.19054,R,ugm-3,15.270,R,ugm-3 (BAM)
08-01-2017,12:00,23.720,R,ugm-3 (Ref.eq),70.00066,R,ugm-3,61.49692,R,ugm-3,168.82976,R,ugm-3,23.820,R,ugm-3 (BAM)
08-01-2017,13:00,23.247,R,ugm-3 (Ref.eq),48.21158,R,ugm-3,56.09123,R,ugm-3,130.01462,R,ugm-3,14.050,R,ugm-3 (BAM)
08-01-2017,14:00,21.363,R,ugm-3 (Ref.eq),52.91483,R,ugm-3,60.45317,R,ugm-3,141.58811,R,ugm-3,16.010,R,ugm-3 (BAM)
08-01-2017,15:00,21.595,R,ugm-3 (Ref.eq),41.47927,R,ugm-3,59.65518,R,ugm-3,123.25584,R,ugm-3,11.120,R,ugm-3 (BAM)
08-01-2017,16:00,26.793,R,ugm-3 (Ref.eq),38.83999,R,ugm-3,58.01808,R,ugm-3,117.57189,R,ugm-3,17.710,R,ugm-3 (BAM)
08-01-2017,17:00,27.498,R,ugm-3 (Ref.eq),32.64870,R,ugm-3,57.37165,R,ugm-3,107.43230,R,ugm-3,18.690,R,ugm-3 (BAM)
08-01-2017,18:00,22.773,R,ugm-3 (Ref.eq),19.11581,R,ugm-3,48.93418,R,ugm-3,78.24468,R,ugm-3,25.280,R,ugm-3 (BAM)
08-01-2017,19:00,19.237,R,ugm-3 (Ref.eq),19.01415,R,ugm-3,50.52395,R,ugm-3,79.67858,R,ugm-3,15.760,R,ugm-3 (BAM)
08-01-2017,20:00,27.257,R,ugm-3 (Ref.eq),20.09681,R,ugm-3,53.42091,R,ugm-3,84.23558,R,ugm-3,20.160,R,ugm-3 (BAM)
08-01-2017,21:00,13.575,R,ugm-3 (Ref.eq),4.77030,R,ugm-3,25.66288,R,ugm-3,32.97724,R,ugm-3,15.270,R,ugm-3 (BAM)
08-01-2017,22:00,12.396,R,ugm-3 (Ref.eq),5.04096,R,ugm-3,13.82929,R,ugm-3,21.55866,R,ugm-3,15.270,R,ugm-3 (BAM)
08-01-2017,23:00,14.049,R,ugm-3 (Ref.eq),5.65027,R,ugm-3,11.46066,R,ugm-3,20.12428,R,ugm-3,11.610,R,ugm-3 (BAM)
08-01-2017,24:00,16.648,R,ugm-3 (Ref.eq),5.24459,R,ugm-3,12.44177,R,ugm-3,20.48335,R,ugm-3,12.100,R,ugm-3 (BAM)
09-01-2017,01:00,21.595,R,ugm-3 (Ref.eq),5.05697,R,ugm-3,16.34677,R,ugm-3,24.10069,R,ugm-3,20.400,R,ugm-3 (BAM)
09-01-2017,02:00,21.121,R,ugm-3 (Ref.eq),2.66423,R,ugm-3,10.77248,R,ugm-3,14.85758,R,ugm-3,10.880,R,ugm-3 (BAM)
09-01-2017,03:00,20.889,R,ugm-3 (Ref.eq),1.62523,R,ugm-3,9.01027,R,ugm-3,11.50225,R,ugm-3,20.160,R,ugm-3 (BAM)
09-01-2017,04:00,21.595,R,ugm-3 (Ref.eq),2.40448,R,ugm-3,8.89408,R,ugm-3,12.58090,R,ugm-3,16.010,R,ugm-3 (BAM)
09-01-2017,05:00,17.826,R,ugm-3 (Ref.eq),4.26701,R,ugm-3,11.17330,R,ugm-3,17.71597,R,ugm-3,18.690,R,ugm-3 (BAM)
09-01-2017,06:00,18.058,R,ugm-3 (Ref.eq),6.77315,R,ugm-3,12.46568,R,ugm-3,22.85103,R,ugm-3,13.810,R,ugm-3 (BAM)
09-01-2017,07:00,15.933,R,ugm-3 (Ref.eq),18.21900,R,ugm-3,30.55267,R,ugm-3,58.48808,R,ugm-3,19.180,R,ugm-3 (BAM)
09-01-2017,08:00,20.889,R,ugm-3 (Ref.eq),37.72459,R,ugm-3,41.62222,R,ugm-3,99.46578,R,ugm-3,22.110,R,ugm-3 (BAM)
09-01-2017,09:00,22.773,R,ugm-3 (Ref.eq),47.13921,R,ugm-3,46.80318,R,ugm-3,119.08229,R,ugm-3,14.540,R,ugm-3 (BAM)
09-01-2017,10:00,22.773,R,ugm-3 (Ref.eq),36.09936,R,ugm-3,40.16059,R,ugm-3,95.51216,R,ugm-3,15.030,R,ugm-3 (BAM)
09-01-2017,11:00,13.575,R,ugm-3 (Ref.eq),20.31852,R,ugm-3,24.56080,R,ugm-3,55.71543,R,ugm-3,9.660,R,ugm-3 (BAM)
09-01-2017,12:00,16.174,R,ugm-3 (Ref.eq),13.88463,R,ugm-3,17.89096,R,ugm-3,39.18043,R,ugm-3,8.440,R,ugm-3 (BAM)
09-01-2017,13:00,26.078,R,ugm-3 (Ref.eq),13.95199,R,ugm-3,21.22827,R,ugm-3,42.62102,R,ugm-3,10.390,R,ugm-3 (BAM)
09-01-2017,14:00,29.614,R,ugm-3 (Ref.eq),15.23920,R,ugm-3,26.03295,R,ugm-3,49.39940,R,ugm-3,15.760,R,ugm-3 (BAM)
09-01-2017,15:00,24.426,R,ugm-3 (Ref.eq),16.39015,R,ugm-3,29.04370,R,ugm-3,54.17491,R,ugm-3,11.860,R,ugm-3 (BAM)
09-01-2017,16:00,24.194,R,ugm-3 (Ref.eq),64.95159,R,ugm-3,58.77399,R,ugm-3,158.36504,R,ugm-3,12.100,R,ugm-3 (BAM)
09-01-2017,17:00,18.300,R,ugm-3 (Ref.eq),25.26250,R,ugm-3,47.22536,R,ugm-3,85.96066,R,ugm-3,8.190,R,ugm-3 (BAM)
09-01-2017,18:00,9.807,R,ugm-3 (Ref.eq),17.23675,R,ugm-3,24.81899,R,ugm-3,51.24831,R,ugm-3,7.700,R,ugm-3 (BAM)